Flag for China Weather past 2 weeks in Tianjin, Tianjin Municipality, China

Now
91 °F

Passing clouds.


Feels Like: 87 °F
Forecast: 67 / 86 °F
Wind: 15 mph from North

Location: Tianjin / Zhangguizhu

Current Time: Jul 2, 2015 at 2:02:22 PM

Latest Report: Jul 2, 2015 at 1:30 PM


Visibility: N/A

Pressure: 29.56 "Hg

Humidity: 16%

Dew point: 39 °F

Location of TianjinLocation

Historic Weather in Tianjin — Graph

°F

Tianjin temperature yesterday

Maximum temperature yesterday: 93 °F (at 1:00 PM)
Minimum temperature yesterday: 64 °F (at 5:30 AM)
Average temperature yesterday: 79 °F

Past Weeks' High & Low Weather Summary

 TemperatureHumidityPressure
High93 °F (Jul 1, 1:00 PM)94% (Jun 26, 11:00 AM)29.89 "Hg (Jun 26, 11:00 AM)
Low63 °F (Jun 20, 2:00 AM)12% (Jun 18, 2:30 PM)29.39 "Hg (Jul 1, 4:00 PM)
Average77 °F58%29.67 "Hg
* Reported Jun 17 1:00 PM — Jul 2 1:00 PM, Tianjin, Weather by CustomWeather, © 2015

Note: Actual official high and low records may vary slightly from our data, if they occured in-between our weather recording intervals... More about our weather records

Advertising

Tianjin weather history for previous 24 hours

 ConditionsComfort  
Time TempWeatherWind HumidityBarometerVisibility
1:00 PM
Thu, Jul 2
90 °FPassing clouds.8 mph20%29.59 "HgN/A
12:00 PM88 °FPassing clouds.8 mph22%29.59 "HgN/A
11:30 AM88 °FPassing clouds.8 mph22%29.59 "HgN/A
11:00 AM86 °FPassing clouds.6 mph27%29.59 "HgN/A
10:30 AM86 °FPassing clouds.8 mph29%29.62 "HgN/A
10:00 AM84 °FPassing clouds.10 mph29%29.62 "HgN/A
9:30 AM82 °FSunny.10 mph32%29.62 "Hg10 mi
9:00 AM81 °FPassing clouds.10 mph32%29.62 "HgN/A
8:30 AM81 °FSunny.13 mph34%29.62 "Hg10 mi
8:00 AM79 °FSunny.13 mph37%29.62 "Hg10 mi
7:30 AM75 °FSunny.10 mph44%29.59 "Hg10 mi
7:00 AM73 °FSunny.10 mph47%29.59 "Hg10 mi
6:30 AM72 °FSunny.8 mph53%29.59 "Hg10 mi
5:30 AM66 °FSunny.8 mph64%29.59 "Hg10 mi
5:00 AM64 °FSunny.8 mph68%29.56 "Hg10 mi
4:30 AM64 °FClear.6 mph68%29.56 "Hg10 mi
4:00 AM66 °FClear.6 mph64%29.56 "Hg10 mi
3:30 AM66 °FClear.6 mph64%29.56 "Hg10 mi
3:00 AM66 °FClear.8 mph64%29.56 "Hg10 mi
2:30 AM68 °FClear.8 mph60%29.56 "Hg10 mi
2:00 AM68 °FClear.6 mph60%29.56 "Hg10 mi
1:30 AM68 °FClear.8 mph60%29.56 "Hg10 mi
1:00 AM68 °FClear.6 mph60%29.53 "Hg10 mi
12:30 AM70 °FClear.6 mph57%29.53 "Hg10 mi
12:00 AM70 °FClear.3 mph60%29.53 "Hg10 mi
11:30 PM
Wed, Jul 1
70 °FClear.6 mph60%29.53 "Hg10 mi
11:00 PM73 °FPassing clouds.6 mph57%29.53 "HgN/A
10:30 PM73 °FClear.3 mph61%29.53 "Hg10 mi
10:00 PM73 °FClear.3 mph61%29.53 "Hg10 mi
9:30 PM73 °FClear.1 mph65%29.53 "Hg10 mi
9:00 PM73 °FClear.3 mph65%29.53 "Hg10 mi
8:30 PM72 °FClear.1 mph69%29.53 "Hg10 mi
8:00 PM72 °FClear.1 mph69%29.50 "Hg10 mi
7:30 PM72 °FLight rain. Clear.10 mph65%29.50 "HgN/A
7:00 PM73 °FLight rain. Clear.17 mph65%29.53 "HgN/A
6:30 PM86 °FSunny.10 mph29%29.42 "Hg10 mi
6:00 PM91 °FPassing clouds.6 mph24%29.39 "HgN/A
5:30 PM93 °FPassing clouds.6 mph19%29.39 "HgN/A
5:00 PM93 °FPassing clouds.6 mph17%29.39 "HgN/A
4:30 PM93 °FPassing clouds.6 mph17%29.39 "HgN/A
4:00 PM91 °FPassing clouds.6 mph18%29.39 "HgN/A
3:30 PM91 °FSunny.3 mph18%29.42 "Hg10 mi
3:00 PM91 °FPassing clouds.6 mph18%29.42 "HgN/A
2:30 PM91 °FSunny.13 mph17%29.42 "Hg10 mi
2:00 PM91 °FPassing clouds.10 mph18%29.42 "HgN/A
Weather by CustomWeather, © 2015

See weather overviewHow to use our weather pages